• En España
  • Lista de países
  • Para 7 días
  • Temperatura del agua
  • Mapa Satelital
  • El tiempo en el mapa
  • Informadores
  • user-avatar
    Iniciar sesión

    Tiempo cada hora Degtyarka

    Hoy, 23 Julio, Lunes

    Tiempo Temperatura Precipitaciones Viento Presión Humedad
    00:00 +18°C° 0,1 mm 4 mps 734 mmHg 96%
    01:00 +18°C° 0 mm 4 mps 734 mmHg 96%
    02:00 +18°C° 0 mm 4 mps 734 mmHg 96%
    03:00 +18°C° 0 mm 4 mps 734 mmHg 97%
    04:00 +18°C° 0 mm 4 mps 734 mmHg 96%
    05:00 +18°C° 0 mm 4 mps 734 mmHg 96%
    06:00 +17°C° 0 mm 5 mps 734 mmHg 95%
    07:00 +17°C° 0 mm 5 mps 734 mmHg 95%
    08:00 +17°C° 0 mm 5 mps 734 mmHg 94%
    09:00 +17°C° 0 mm 5 mps 734 mmHg 93%
    10:00 +19°C° 0 mm 5 mps 734 mmHg 92%
    11:00 +19°C° 0 mm 5 mps 734 mmHg 91%
    12:00 +19°C° 0 mm 5 mps 734 mmHg 90%
    13:00 +20°C° 0 mm 5 mps 734 mmHg 89%
    14:00 +20°C° 0 mm 5 mps 734 mmHg 88%
    15:00 +20°C° 0 mm 5 mps 734 mmHg 87%
    16:00 +20°C° 0 mm 5 mps 734 mmHg 88%
    17:00 +21°C° 0 mm 5 mps 734 mmHg 88%
    18:00 +21°C° 0 mm 5 mps 734 mmHg 88%
    19:00 +20°C° 0,6 mm 5 mps 734 mmHg 89%
    20:00 +20°C° 0,6 mm 5 mps 734 mmHg 91%
    21:00 +20°C° 0,6 mm 5 mps 734 mmHg 92%
    22:00 +19°C° 0,9 mm 5 mps 734 mmHg 93%
    23:00 +19°C° 0,9 mm 5 mps 734 mmHg 95%

    Mañana, 24 Julio, Martes

    Tiempo Temperatura Precipitaciones Viento Presión Humedad
    00:00 +19°C° 0,9 mm 4 mps 734 mmHg 96%
    01:00 +18°C° 0,2 mm 4 mps 734 mmHg 96%
    02:00 +18°C° 0,2 mm 4 mps 735 mmHg 96%
    03:00 +18°C° 0,2 mm 4 mps 735 mmHg 96%
    04:00 +18°C° 0 mm 4 mps 735 mmHg 96%
    05:00 +18°C° 0 mm 4 mps 735 mmHg 96%
    06:00 +18°C° 0 mm 3 mps 735 mmHg 96%
    07:00 +19°C° 0 mm 3 mps 735 mmHg 95%
    08:00 +19°C° 0 mm 3 mps 736 mmHg 94%
    09:00 +20°C° 0 mm 3 mps 736 mmHg 93%
    10:00 +21°C° 0 mm 3 mps 736 mmHg 91%
    11:00 +21°C° 0 mm 3 mps 736 mmHg 88%
    12:00 +22°C° 0 mm 3 mps 736 mmHg 86%
    13:00 +24°C° 0,2 mm 3 mps 736 mmHg 84%
    14:00 +24°C° 0,2 mm 3 mps 736 mmHg 82%
    15:00 +25°C° 0,2 mm 3 mps 736 mmHg 80%
    16:00 +25°C° 0,5 mm 3 mps 736 mmHg 81%
    17:00 +25°C° 0,5 mm 3 mps 737 mmHg 82%
    18:00 +25°C° 0,5 mm 2 mps 737 mmHg 83%
    19:00 +24°C° 0,3 mm 3 mps 737 mmHg 86%
    20:00 +22°C° 0,3 mm 3 mps 737 mmHg 90%
    21:00 +21°C° 0,3 mm 3 mps 737 mmHg 93%
    22:00 +20°C° 0 mm 3 mps 737 mmHg 94%
    23:00 +20°C° 0 mm 3 mps 738 mmHg 95%

    Pasado mañana, 25 Julio, Miércoles

    Tiempo Temperatura Precipitaciones Viento Presión Humedad
    00:00 +20°C° 0 mm 3 mps 738 mmHg 96%
    01:00 +19°C° 0,1 mm 3 mps 738 mmHg 96%
    02:00 +19°C° 0,1 mm 3 mps 738 mmHg 96%
    03:00 +19°C° 0,1 mm 4 mps 738 mmHg 97%
    04:00 +19°C° 0 mm 4 mps 738 mmHg 96%
    05:00 +19°C° 0 mm 4 mps 738 mmHg 95%
    06:00 +19°C° 0 mm 3 mps 739 mmHg 94%
    07:00 +19°C° 0 mm 4 mps 739 mmHg 89%
    08:00 +19°C° 0 mm 4 mps 739 mmHg 85%
    09:00 +20°C° 0 mm 4 mps 739 mmHg 81%
    10:00 +20°C° 0 mm 5 mps 739 mmHg 77%
    11:00 +21°C° 0 mm 5 mps 739 mmHg 73%
    12:00 +21°C° 0 mm 5 mps 739 mmHg 69%
    13:00 +21°C° 0 mm 5 mps 739 mmHg 71%
    14:00 +21°C° 0 mm 5 mps 739 mmHg 72%
    15:00 +21°C° 0 mm 5 mps 739 mmHg 74%
    16:00 +21°C° 0,1 mm 5 mps 739 mmHg 78%
    17:00 +20°C° 0,1 mm 4 mps 739 mmHg 81%
    18:00 +19°C° 0,1 mm 4 mps 739 mmHg 85%
    19:00 +19°C° 0 mm 3 mps 739 mmHg 88%
    20:00 +18°C° 0 mm 3 mps 739 mmHg 90%
    21:00 +17°C° 0 mm 2 mps 739 mmHg 93%
    22:00 +17°C° 0 mm 2 mps 739 mmHg 94%
    23:00 +17°C° 0 mm 2 mps 739 mmHg 96%

    26 Julio, Jueves

    Tiempo Temperatura Precipitaciones Viento Presión Humedad
    00:00 +16°C° 0 mm 2 mps 739 mmHg 97%
    01:00 +17°C° 0 mm 2 mps 739 mmHg 97%
    02:00 +17°C° 0 mm 2 mps 739 mmHg 97%
    03:00 +17°C° 0 mm 2 mps 739 mmHg 97%
    04:00 +17°C° 0 mm 2 mps 739 mmHg 96%
    05:00 +17°C° 0 mm 2 mps 739 mmHg 95%
    06:00 +17°C° 0 mm 2 mps 740 mmHg 94%
    07:00 +19°C° 0 mm 3 mps 740 mmHg 90%
    08:00 +20°C° 0 mm 3 mps 740 mmHg 86%
    09:00 +21°C° 0 mm 3 mps 740 mmHg 82%
    10:00 +24°C° 0 mm 3 mps 740 mmHg 79%
    11:00 +25°C° 0 mm 3 mps 740 mmHg 76%
    12:00 +26°C° 0 mm 4 mps 740 mmHg 73%
    13:00 +27°C° 0 mm 4 mps 740 mmHg 72%
    14:00 +27°C° 0 mm 4 mps 740 mmHg 71%
    15:00 +28°C° 0 mm 4 mps 740 mmHg 70%
    16:00 +28°C° 0 mm 4 mps 740 mmHg 72%
    17:00 +28°C° 0 mm 4 mps 740 mmHg 74%
    18:00 +27°C° 0 mm 4 mps 740 mmHg 76%
    19:00 +26°C° 0 mm 4 mps 740 mmHg 79%
    20:00 +25°C° 0 mm 4 mps 740 mmHg 83%
    21:00 +23°C° 0 mm 4 mps 740 mmHg 86%
    22:00 +22°C° 0,1 mm 4 mps 741 mmHg 87%
    23:00 +22°C° 0,1 mm 4 mps 741 mmHg 87%

    27 Julio, Viernes

    Tiempo Temperatura Precipitaciones Viento Presión Humedad
    00:00 +21°C° 0,1 mm 3 mps 741 mmHg 88%
    01:00 +21°C° 0 mm 3 mps 741 mmHg 89%
    02:00 +20°C° 0 mm 3 mps 741 mmHg 89%
    03:00 +20°C° 0 mm 3 mps 741 mmHg 90%
    04:00 +20°C° 0 mm 3 mps 741 mmHg 89%
    05:00 +20°C° 0 mm 3 mps 741 mmHg 88%
    06:00 +20°C° 0 mm 3 mps 741 mmHg 88%
    07:00 +21°C° 0 mm 4 mps 742 mmHg 83%
    08:00 +23°C° 0 mm 4 mps 742 mmHg 79%
    09:00 +25°C° 0 mm 4 mps 742 mmHg 75%
    10:00 +26°C° 0 mm 4 mps 742 mmHg 70%
    11:00 +28°C° 0 mm 5 mps 742 mmHg 66%
    12:00 +29°C° 0 mm 5 mps 743 mmHg 61%
    13:00 +29°C° 0 mm 5 mps 742 mmHg 60%
    14:00 +30°C° 0 mm 5 mps 742 mmHg 60%
    15:00 +30°C° 0 mm 5 mps 742 mmHg 59%
    16:00 +29°C° 0,5 mm 4 mps 742 mmHg 64%
    17:00 +29°C° 0,5 mm 4 mps 742 mmHg 69%
    18:00 +28°C° 0,5 mm 3 mps 742 mmHg 73%
    19:00 +26°C° 0,1 mm 3 mps 742 mmHg 77%
    20:00 +25°C° 0,1 mm 3 mps 742 mmHg 80%
    21:00 +22°C° 0,1 mm 3 mps 742 mmHg 84%
    22:00 +21°C° 0 mm 3 mps 742 mmHg 85%
    23:00 +21°C° 0 mm 3 mps 742 mmHg 87%

    28 Julio, Sábado

    Tiempo Temperatura Precipitaciones Viento Presión Humedad
    00:00 +20°C° 0 mm 3 mps 742 mmHg 88%
    01:00 +20°C° 0 mm 3 mps 742 mmHg 89%
    02:00 +19°C° 0 mm 3 mps 742 mmHg 90%
    03:00 +19°C° 0 mm 3 mps 742 mmHg 91%
    04:00 +19°C° 0 mm 3 mps 742 mmHg 90%
    05:00 +19°C° 0 mm 3 mps 742 mmHg 89%
    06:00 +19°C° 0 mm 3 mps 742 mmHg 88%
    07:00 +21°C° 0,1 mm 3 mps 742 mmHg 84%
    08:00 +22°C° 0,1 mm 4 mps 742 mmHg 81%
    09:00 +25°C° 0,1 mm 4 mps 742 mmHg 77%
    10:00 +26°C° 0,2 mm 4 mps 742 mmHg 72%
    11:00 +27°C° 0,2 mm 4 mps 742 mmHg 68%
    12:00 +28°C° 0,2 mm 4 mps 742 mmHg 64%
    13:00 +28°C° 0 mm 4 mps 741 mmHg 62%
    14:00 +28°C° 0 mm 4 mps 741 mmHg 61%
    15:00 +29°C° 0 mm 3 mps 741 mmHg 59%
    16:00 +28°C° 0,2 mm 3 mps 741 mmHg 64%
    17:00 +27°C° 0,2 mm 2 mps 741 mmHg 68%
    18:00 +27°C° 0,2 mm 2 mps 741 mmHg 73%
    19:00 +26°C° 0,1 mm 2 mps 741 mmHg 73%
    20:00 +25°C° 0,1 mm 2 mps 741 mmHg 73%
    21:00 +24°C° 0,1 mm 2 mps 741 mmHg 74%
    22:00 +23°C° 0 mm 2 mps 741 mmHg 75%
    23:00 +23°C° 0 mm 2 mps 741 mmHg 77%
    Mostrar más